User: anonymous   Login
Location: Unspecified
(0.0000°N, 0.0000°E)
Time: 20:13:35
(UTC+00:00)
Language:

POSAT 1 - Orbit

View from above orbital plane
View from above orbital plane
View from above satellite
View from above satellite

Ground track
Ground track

The orbit data is extracted from the following two-line orbital elements,

1 22829U 93061G   19340.95141500 +.00000012 +00000-0 +22199-4 0  9994
2 22829 098.8999 335.2925 0010052 159.1248 253.0927 14.31044795366971
Epoch (UTC): 06 December 2019 22:50:02
Eccentricity: 0.0010052
inclination: 98.8999°
perigee height: 781 km
apogee height: 795 km
right ascension of ascending node: 335.2925°
argument of perigee: 159.1248°
revolutions per day: 14.31044795
mean anomaly at epoch: 253.0927°
orbit number at epoch: 36697

The dashed part of the orbit path shows where the satellite is in the earth's shadow,  

DLR